(197447) = 2003 YE104 = 2005 EH288

Discovered at Socorro on 2003-12-21 by LINEAR.

Orbit

Orbit type: Main Belt

Note: WebGL enabled browser required.

epoch2023-02-25.0
epoch JD2460000.5
perihelion date2021-06-25.09046
perihelion JD2459390.59046
argument of perihelion (°)18.94188
ascending node (°)101.80262
inclination (°)6.33773
eccentricity0.1295032
perihelion distance (AU)2.7760041
Tisserand w.r.t. Jupiter3.2
ΔV w.r.t. Earth (km/sec)10.6
semimajor axis (AU)3.1889885
mean anomaly (°)105.55768
mean daily motion (°/day)0.17307110
aphelion distance (AU)3.602
period (years)5.69
P-vector [x]-0.50926864
P-vector [y]0.77465368
P-vector [z]0.37490949
Q-vector [x]-0.85379715
Q-vector [y]-0.50947407
Q-vector [z]-0.10708223
absolute magnitude15.32
phase slope0.15
uncertainty0
referenceMPO 745323
observations used579
oppositions18
arc length (days)9297
first opposition used1998
last opposition used2023
residual rms (arc-secs)0.76
perturbers coarse indicatorM-v
perturbers precise indicator003Ek
first observation date used1998-01-02.0
last observation date used2023-06-17.0
computer nameMPCLINUX
JD of orbit computation2456966.728946
perihelion JD uncertainty (days)1.7505E-04
argument of perihelion uncertainty (°)6.7997E-05
ascending node uncertainty (°)6.1498E-05
inclination uncertainty (°)5.6139E-06
eccentricity uncertainty 5.8196E-08
perihelion distance uncertainty (AU)1.9781E-07
Minimum Orbit Intersection Distances (in AU)
for orbit epoch: 2460000.5, reference: E2023-M35
Mercury2.44823
Venus2.05749
Earth1.79263
Mars1.13176
Jupiter1.49053
Saturn6.14033
Uranus15.5074
Neptune26.4945

Observations

596 total observations over interval: 1998 01 02.17137 – 2023 06 17.392057
These data are available for download (format description).

Date (UT) J2000 RA J2000 Dec Magn Location Ref
1998 01 02.17137 03 32 45.97 +14 16 21.3 20.2 V 691 – Steward Observatory, Kitt Peak-Spacewatch MPS 131700
1998 01 02.19299 03 32 45.59 +14 16 23.6 20.2 V 691 – Steward Observatory, Kitt Peak-Spacewatch MPS 131700
1998 01 02.21457 03 32 45.20 +14 16 26.1 20.2 V 691 – Steward Observatory, Kitt Peak-Spacewatch MPS 131700
1999 02 18.26758 11 03 23.65 +14 33 27.1 18.8 R 699 – Lowell Observatory-LONEOS MPS 131700
1999 02 18.29309 11 03 22.65 +14 33 38.6   699 – Lowell Observatory-LONEOS MPS 131700
1999 02 18.31859 11 03 21.60 +14 33 47.0   699 – Lowell Observatory-LONEOS MPS 131700
2002 09 08.02626 00 44 19.17 -04 39 11.2 19.3 R 599 – Campo Imperatore-CINEOS MPS 131700
2002 09 08.04152 00 44 18.61 -04 39 15.7 19.3 R 599 – Campo Imperatore-CINEOS MPS 131700
2002 09 08.05624 00 44 18.12 -04 39 21.2 19.4 R 599 – Campo Imperatore-CINEOS MPS 131700
2003 12 21.27386 05 46 38.67 +20 58 00.5 19.4   704 – Lincoln Laboratory ETS, New Mexico MPS 94986
2003 12 21.31208 05 46 36.59 +20 58 04.4 19.4   704 – Lincoln Laboratory ETS, New Mexico MPS 94986
2003 12 21.32484 05 46 35.78 +20 58 06.1 19.6   704 – Lincoln Laboratory ETS, New Mexico MPS 94986
2003 12 23.26174 05 44 51.22 +21 01 36.6 19.7   704 – Lincoln Laboratory ETS, New Mexico MPS 94986
2003 12 23.28705 05 44 49.76 +21 01 40.0 19.6   704 – Lincoln Laboratory ETS, New Mexico MPS 94986
2003 12 23.29976 05 44 49.07 +21 01 41.4 19.3   704 – Lincoln Laboratory ETS, New Mexico MPS 94986
2003 12 23.31259 05 44 48.40 +21 01 42.3 19.5   704 – Lincoln Laboratory ETS, New Mexico MPS 94986
2004 01 21.23773 05 24 03.65 +21 55 48.3 19.6   704 – Lincoln Laboratory ETS, New Mexico MPS 108489
2004 01 21.27643 05 24 02.30 +21 55 55.5 19.8   704 – Lincoln Laboratory ETS, New Mexico MPS 108489
2004 01 21.28930 05 24 02.01 +21 55 57.6 19.8   704 – Lincoln Laboratory ETS, New Mexico MPS 108489
2004 01 24.22386 05 22 53.78 +22 01 41.7 20.4   704 – Lincoln Laboratory ETS, New Mexico MPS 108489
2004 01 24.24896 05 22 53.18 +22 01 45.9 20.0   704 – Lincoln Laboratory ETS, New Mexico MPS 108489
2004 01 24.26150 05 22 52.80 +22 01 46.8 19.9   704 – Lincoln Laboratory ETS, New Mexico MPS 108489
2004 03 18.12017 05 41 50.51 +23 52 55.5 19.9   704 – Lincoln Laboratory ETS, New Mexico MPS 131700
2004 03 18.13156 05 41 51.19 +23 52 55.9 20.4   704 – Lincoln Laboratory ETS, New Mexico MPS 131700
2004 03 18.16514 05 41 53.12 +23 52 59.0 20.2   704 – Lincoln Laboratory ETS, New Mexico MPS 131700
2005 03 08.32368 12 52 33.44 +04 17 10.0 19.2 R 699 – Lowell Observatory-LONEOS MPS 130302
2005 03 08.34314 12 52 32.65 +04 17 16.3   699 – Lowell Observatory-LONEOS MPS 130302
2005 03 08.36260 12 52 32.03 +04 17 20.8   699 – Lowell Observatory-LONEOS MPS 130302
2005 03 08.38208 12 52 31.46 +04 17 27.8   699 – Lowell Observatory-LONEOS MPS 130302
2005 03 18.34729 12 46 14.27 +05 12 15.6 19.0 R 703 – Catalina Sky Survey MPS 130302
2005 03 18.35429 12 46 13.87 +05 12 17.1 18.7 R 703 – Catalina Sky Survey MPS 130302
2005 03 18.36132 12 46 13.62 +05 12 18.7 19.0 R 703 – Catalina Sky Survey MPS 130302
2005 03 18.36840 12 46 13.26 +05 12 21.3 19.1 R 703 – Catalina Sky Survey MPS 130302
2005 03 30.33337 12 37 33.95 +06 13 41.3 18.1 R 703 – Catalina Sky Survey MPS 130760
2005 03 30.34193 12 37 33.60 +06 13 45.6 18.5 R 703 – Catalina Sky Survey MPS 130760
2005 03 30.35052 12 37 33.11 +06 13 47.7 19.4 R 703 – Catalina Sky Survey MPS 130760
2005 03 30.35913 12 37 32.75 +06 13 51.1 19.9 R 703 – Catalina Sky Survey MPS 130760
2005 04 05.23538 12 33 14.36 +06 39 29.8 19.0 R 699 – Lowell Observatory-LONEOS MPS 130841
2005 04 05.25165 12 33 13.66 +06 39 34.8   699 – Lowell Observatory-LONEOS MPS 130841
2005 04 05.26790 12 33 12.90 +06 39 38.2   699 – Lowell Observatory-LONEOS MPS 130841
2005 04 05.28414 12 33 12.24 +06 39 42.1   699 – Lowell Observatory-LONEOS MPS 130841
2005 04 06.25947 12 32 30.15 +06 43 34.5 18.8 R 703 – Catalina Sky Survey MPS 130841
2005 04 06.26699 12 32 29.76 +06 43 36.3 18.7 R 703 – Catalina Sky Survey MPS 130841
2005 04 06.27451 12 32 29.47 +06 43 37.4 18.3 R 703 – Catalina Sky Survey MPS 130841
2005 04 06.28203 12 32 29.11 +06 43 38.8 18.6 R 703 – Catalina Sky Survey MPS 130841
2005 04 08.38356 12 30 59.63 +06 51 33.5 19.3   704 – Lincoln Laboratory ETS, New Mexico MPS 131700
2005 04 08.39310 12 30 59.24 +06 51 35.9 19.7   704 – Lincoln Laboratory ETS, New Mexico MPS 131700
2005 04 08.40273 12 30 58.81 +06 51 38.5 19.9   704 – Lincoln Laboratory ETS, New Mexico MPS 131700
2005 04 08.41229 12 30 58.36 +06 51 40.6 19.4   704 – Lincoln Laboratory ETS, New Mexico MPS 131700
2005 04 13.23485 12 27 42.12 +07 07 28.2 19.9   704 – Lincoln Laboratory ETS, New Mexico MPS 131700
2005 04 13.24474 12 27 41.79 +07 07 29.7 20.0   704 – Lincoln Laboratory ETS, New Mexico MPS 131700
2005 04 13.25482 12 27 41.34 +07 07 32.2 19.8   704 – Lincoln Laboratory ETS, New Mexico MPS 131700
2005 04 13.26595 12 27 41.03 +07 07 33.2 19.8   704 – Lincoln Laboratory ETS, New Mexico MPS 131700
2005 04 16.27837 12 25 45.98 +07 15 42.8 18.3 R 703 – Catalina Sky Survey MPS 132608
2005 04 16.28816 12 25 45.66 +07 15 40.8 19.9 R 703 – Catalina Sky Survey MPS 132609
2005 04 16.29787 12 25 45.23 +07 15 44.0 18.9 R 703 – Catalina Sky Survey MPS 132609
2005 04 16.30786 12 25 44.92 +07 15 44.1 19.6 R 703 – Catalina Sky Survey MPS 132609
2008 09 29.35356 02 00 14.14 +02 49 53.5 20.2 V 703 – Catalina Sky Survey MPS 257885
2008 09 29.36444 02 00 13.78 +02 49 52.7 20.0 V 703 – Catalina Sky Survey MPS 257885
2008 09 29.37535 02 00 13.28 +02 49 47.4 20.2 V 703 – Catalina Sky Survey MPS 257885
2008 09 29.38620 02 00 12.92 +02 49 46.3 20.1 V 703 – Catalina Sky Survey MPS 257885
2008 10 04.17988 01 57 14.90 +02 28 49.2 20.5 V J75 – OAM Observatory, La Sagra MPS 259216
2008 10 04.19308 01 57 14.42 +02 28 45.6 19.5 V J75 – OAM Observatory, La Sagra MPS 259216
2008 10 04.20627 01 57 13.95 +02 28 41.0 19.7 V J75 – OAM Observatory, La Sagra MPS 259216
2008 10 21.35046 01 44 50.24 +01 16 30.7 19.8 V G96 – Mt. Lemmon Survey MPS 260567
2008 10 21.35565 01 44 49.99 +01 16 29.6 19.6 V G96 – Mt. Lemmon Survey MPS 260567
2008 10 21.36090 01 44 49.74 +01 16 28.3 19.6 V G96 – Mt. Lemmon Survey MPS 260567
2008 10 21.36610 01 44 49.48 +01 16 27.2 19.7 V G96 – Mt. Lemmon Survey MPS 260567
2008 10 23.31174 01 43 20.74 +01 09 11.7 19.7 V G96 – Mt. Lemmon Survey MPS 260567
2008 10 23.31925 01 43 20.38 +01 09 10.1 19.8 V G96 – Mt. Lemmon Survey MPS 260568
2008 10 23.32681 01 43 20.06 +01 09 08.7 19.7 V G96 – Mt. Lemmon Survey MPS 260568
2008 10 23.33438 01 43 19.70 +01 09 06.8 19.1 V G96 – Mt. Lemmon Survey MPS 260568
2008 10 24.25795 01 42 37.65 +01 05 45.8 19.3   704 – Lincoln Laboratory ETS, New Mexico MPS 261464
2008 10 24.26943 01 42 37.10 +01 05 43.0 19.8   704 – Lincoln Laboratory ETS, New Mexico MPS 261464
2008 10 24.28103 01 42 36.51 +01 05 40.6 19.8   704 – Lincoln Laboratory ETS, New Mexico MPS 261464
2008 10 24.29253 01 42 36.06 +01 05 37.4 19.8   704 – Lincoln Laboratory ETS, New Mexico MPS 261464
2008 10 24.30421 01 42 35.44 +01 05 34.7 19.8   704 – Lincoln Laboratory ETS, New Mexico MPS 261464
2008 10 29.28941 01 38 51.39 +00 48 58.4 20.3 V 703 – Catalina Sky Survey MPS 261464
2008 10 29.29613 01 38 51.21 +00 48 57.2 20.6 V 703 – Catalina Sky Survey MPS 261464
2008 10 29.30285 01 38 50.85 +00 48 56.1 19.2 V 703 – Catalina Sky Survey MPS 261464
2008 10 29.30941 01 38 50.46 +00 48 55.9 20.1 V 703 – Catalina Sky Survey MPS 261464
2008 10 30.20173 01 38 11.24 +00 46 12.3 19.5   704 – Lincoln Laboratory ETS, New Mexico MPS 261464
2008 10 30.21332 01 38 10.73 +00 46 10.1 19.7   704 – Lincoln Laboratory ETS, New Mexico MPS 261464
2008 10 30.22531 01 38 10.18 +00 46 08.7 19.7   704 – Lincoln Laboratory ETS, New Mexico MPS 261464
2008 10 30.23690 01 38 09.71 +00 46 06.2 19.5   704 – Lincoln Laboratory ETS, New Mexico MPS 261464
2008 10 30.24845 01 38 09.11 +00 46 04.6 20.2   704 – Lincoln Laboratory ETS, New Mexico MPS 261464
2009 10 18.45163 07 58 53.29 +20 03 10.2 20.9 V G96 – Mt. Lemmon Survey MPS 300475
2009 10 18.45912 07 58 53.68 +20 03 09.5 20.5 V G96 – Mt. Lemmon Survey MPS 300475
2009 10 18.46681 07 58 54.15 +20 03 09.2 21.0 V G96 – Mt. Lemmon Survey MPS 300475
